x

Olcott Harbor, Ny (olcn6) Weather Station

2:00am - Fri 27th Mar 2015 All times are CDT. -5 hours from GMT.

  • Wind
    16mph, 21mph gusts
  • Air Temp 35°f
  • Sea Pressure 1010.2mb
  • Olcott Harbor, Ny
  • Olcott Harbor, Ny

More Historic Weather Station data

Upgrade to MSW Pro to gain access to the past 30 days of data for over 8000 Wavebouys and Weather Stations around the globe.

Join Pro

Comparision Forecast

View Surf forecast
   
Fri 03/27 2:00am 16 21 mph 1010.2mb 35f
1:50am 13 16 mph 1010.5mb 36f
1:40am 11 18 mph 1010.5mb 36f
1:30am 11 16 mph 1010.2mb 36f
1:20am 15 18 mph 1010.2mb 36f
1:10am 15 17 mph 1010.2mb 36f
Thu 03/26 8:00pm 7 11 mph 1010.8mb 37f
7:50pm 9 15 mph 1010.8mb 37f
7:40pm 8 11 mph 1010.8mb 37f
7:30pm 9 14 mph 1010.5mb 38f
7:20pm 8 13 mph 1010.2mb 38f
7:10pm 8 13 mph 1010.5mb 38f
7:00pm 9 14 mph 1010.5mb 38f
6:50pm 8 10 mph 1010.5mb 38f
6:40pm 7 11 mph 1010.5mb 38f
6:30pm 6 9 mph 1010.5mb 38f
6:20pm 7 10 mph 1010.2mb 38f
6:10pm 5 10 mph 1010.2mb 38f
6:00pm 5 9 mph 1010.2mb 38f
5:50pm 7 9 mph 1009.8mb 38f
5:40pm 6 9 mph 1009.8mb 38f
5:30pm 6 8 mph 1009.8mb 38f
5:20pm 6 8 mph 1009.8mb 38f
5:10pm 7 9 mph 1010.2mb 38f
5:00pm 6 8 mph 1009.8mb 38f
4:50pm 6 8 mph 1009.8mb 37f
4:40pm 5 9 mph 1009.5mb 37f
4:30pm 6 9 mph 1009.5mb 37f
4:20pm 6 9 mph 1009.5mb 37f
4:10pm 7 9 mph 1009.5mb 37f
4:00pm 5 7 mph 1009.5mb 37f
3:50pm 5 7 mph 1009.5mb 37f
3:40pm 5 7 mph 1009.5mb 36f
3:30pm 5 8 mph 1009.5mb 36f
3:20pm 6 8 mph 1009.5mb 35f
3:10pm 6 7 mph 1009.5mb 35f
3:00pm 5 8 mph 1009.1mb 35f
2:50pm 8 9 mph 1009.5mb 34f
2:40pm 8 10 mph 1009.5mb 34f
2:30pm 7 8 mph 1009.5mb 34f
2:20pm 6 10 mph 1009.8mb 34f
2:10pm 9 11 mph 1009.8mb 33f
2:00pm 10 13 mph 1009.8mb 33f
1:50pm 10 14 mph 1009.8mb 33f
1:40pm 11 14 mph 1010.2mb 33f
1:30pm 8 9 mph 1010.2mb 33f
1:20pm 6
mph
1010.2mb 33f
1:10pm 5 6 mph 1010.2mb 33f
1:00pm 3 5 mph 1010.2mb 33f
12:50pm 3 5 mph 1010.5mb 33f
12:40pm 3 5 mph 1010.5mb 33f
12:30pm 3 5 mph 1010.5mb 33f
12:20pm 5
mph
1010.5mb 33f
12:10pm 5 6 mph 1010.8mb 33f
12:00pm 3
mph
1010.8mb 33f
11:50am 2 3 mph 1010.8mb 33f
11:40am 2
mph
1010.8mb 33f
11:30am 2
mph
1010.8mb 33f
11:20am 2
mph
1011.2mb 33f
11:10am 1 3 mph 1011.2mb 33f
11:00am 1 2 mph 1011.2mb 33f
10:50am 2 3 mph 1011.5mb 33f
10:40am 2 3 mph 1011.9mb 33f
10:30am 2 5 mph 1011.9mb 32f
10:20am 3 5 mph 1011.9mb 32f
10:10am 3 7 mph 1012.2mb 32f
10:00am 6 8 mph 1011.9mb 32f
9:50am 7 9 mph 1011.9mb 33f
9:40am 8 10 mph 1012.5mb 33f
9:30am 9 10 mph 1012.5mb 33f
9:20am 9 10 mph 1012.5mb 34f
9:10am 8 10 mph 1012.2mb 35f
9:00am 8 10 mph 1012.5mb 36f
8:50am 6 13 mph 1012.9mb 37f
8:40am 9 10 mph 1013.2mb 38f
8:30am 7 10 mph 1013.2mb 38f
8:20am 8 11 mph 1013.5mb 38f
8:10am 6 8 mph 1013.2mb 38f
8:00am 6 8 mph 1013.2mb 39f
7:50am 6 8 mph 1013.5mb 39f
7:40am 6 8 mph 1013.2mb 39f
7:30am 3 8 mph 1013.2mb 39f
7:20am 6 9 mph 1013.5mb 39f
7:10am 5 7 mph 1013.2mb 39f
7:00am 6 7 mph 1013.2mb 39f
6:50am 5 6 mph 1013.2mb 39f
6:40am 5 7 mph 1012.9mb 39f
6:30am 6 7 mph 1013.2mb 39f
6:20am 5 7 mph 1013.2mb 39f
6:10am 5 7 mph 1012.5mb 39f
Wed 03/25 8:00pm 11 18 mph 1013.9mb 45f
7:50pm 13 17 mph 1014.2mb 45f
7:40pm 13 17 mph 1013.9mb 45f
7:30pm 13 22 mph 1013.9mb 45f
7:20pm 11 17 mph 1013.5mb 45f
7:10pm 11 20 mph 1013.5mb 45f
6:00pm 16 22 mph 1012.9mb 47f
5:50pm 14 21 mph 1012.9mb 47f
5:40pm 14 22 mph 1012.9mb 46f
5:30pm 13 20 mph 1012.9mb 46f
5:20pm 11 21 mph 1012.5mb 46f
5:10pm 14 20 mph 1012.5mb 46f
5:00pm 13 25 mph 1012.5mb 46f
4:50pm 15 24 mph 1012.2mb 46f
4:40pm 14 21 mph 1012.2mb 46f
4:30pm 15 22 mph 1012.2mb 47f
4:20pm 13 22 mph 1011.9mb 46f
4:10pm 13 22 mph 1012.2mb 46f
4:00pm 14 25 mph 1011.9mb 46f
3:50pm 14 25 mph 1012.2mb 46f
3:40pm 14 24 mph 1012.2mb 46f
3:30pm 14 32 mph 1011.9mb 46f
3:20pm 11 23 mph 1011.9mb 46f
3:10pm 13 21 mph 1011.9mb 46f
3:00pm 11 21 mph 1011.9mb 46f
2:50pm 10 16 mph 1011.9mb 45f
2:40pm 5 8 mph 1011.9mb 44f
2:30pm 3 9 mph 1011.9mb 43f
2:20pm 6 11 mph 1011.9mb 43f
2:10pm 8 14 mph 1011.9mb 43f
2:00pm 9 17 mph 1012.2mb 43f
1:50pm 10 15 mph 1012.2mb 43f
1:40pm 9 18 mph 1012.5mb 43f
1:30pm 10 15 mph 1012.5mb 43f
1:20pm 9 15 mph 1012.9mb 42f
1:10pm 8 11 mph 1012.9mb 43f
1:00pm 8 13 mph 1012.5mb 43f
12:50pm 7 15 mph 1013.2mb 43f
12:40pm 7 9 mph 1013.2mb 43f
12:30pm 5 10 mph 1013.9mb 43f
12:20pm 7 10 mph 1014.2mb 43f
12:10pm 7 13 mph 1014.6mb 44f
12:00pm 3 8 mph 1014.9mb 38f
11:50am 3 7 mph 1015.2mb 36f
11:40am 7 8 mph 1015.2mb 37f
11:30am 3 5 mph 1015.2mb 43f
11:20am 3 8 mph 1015.2mb 43f
11:10am 7 10 mph 1015.6mb 43f
11:00am 8 9 mph 1015.6mb 43f
10:50am 6 7 mph 1016.3mb 43f
10:40am 6 9 mph 1016.9mb 43f
10:30am 6 11 mph 1016.9mb 43f
10:20am 9 11 mph 1017.3mb 42f
10:10am 8 11 mph 1017.6mb 42f
10:00am 8 13 mph 1017.9mb 41f
9:50am 9 14 mph 1017.9mb 40f
9:40am 9 14 mph 1017.9mb 40f
9:30am 7 14 mph 1018.6mb 39f
9:20am 9 13 mph 1018.6mb 39f
9:10am 7 11 mph 1019mb 38f
8:00am 7 10 mph 1021mb 33f
7:50am 8 9 mph 1021.3mb 32f
7:00am 6 7 mph 1022.4mb 29f
6:50am  -  1 mph 1022.4mb 27f
Tue 03/24 8:00pm 9 11 mph 1028.8mb 28f
7:50pm 8 13 mph 1028.8mb 28f
7:00pm 9 15 mph 1028.8mb 29f
6:50pm 13 15 mph 1028.8mb 29f
5:00pm 14 16 mph 1028.4mb 29f
4:50pm 14 16 mph 1028.4mb 29f
4:40pm 15 17 mph 1028.8mb 29f
4:30pm 14 16 mph 1028.4mb 29f
4:20pm 14 16 mph 1028.8mb 29f
4:10pm 14 16 mph 1028.8mb 29f
4:00pm 14 15 mph 1028.8mb 29f
3:50pm 14 15 mph 1028.8mb 28f
3:40pm 14 15 mph 1029.1mb 29f
3:30pm 13 15 mph 1029.1mb 29f
3:20pm 14
mph
1029.1mb 28f
3:10pm 13 15 mph 1029.1mb 28f
3:00pm 13 16 mph 1029.1mb 28f
2:50pm 14 15 mph 1029.1mb 28f
2:40pm 14 15 mph 1029.5mb 28f
2:30pm 13 15 mph 1029.5mb 28f
2:20pm 14 15 mph 1029.5mb 28f
2:10pm 14 16 mph 1029.5mb 28f
2:00pm 15 16 mph 1029.5mb 28f
1:50pm 14 16 mph 1029.8mb 28f
1:40pm 13 15 mph 1029.8mb 28f
1:30pm 13 15 mph 1029.8mb 27f
1:20pm 13 15 mph 1029.8mb 27f
1:10pm 13 14 mph 1030.1mb 27f
1:00pm 13 15 mph 1030.1mb 27f
12:50pm 13 15 mph 1030.1mb 27f
12:40pm 11 14 mph 1030.1mb 27f
12:30pm 11 14 mph 1030.1mb 27f
12:20pm 10 13 mph 1030.1mb 27f
12:10pm 10 14 mph 1030.1mb 27f
12:00pm 11 14 mph 1030.1mb 27f
11:50am 11 14 mph 1030.1mb 26f
11:40am 11 15 mph 1030.1mb 26f
11:30am 10 13 mph 1030.1mb 26f
11:20am 11 13 mph 1030.1mb 26f
11:10am 10 11 mph 1030.1mb 26f
Mon 03/23 8:00pm  -  3 mph 1028.8mb 22f
7:50pm  -  3 mph 1028.8mb 22f
7:40pm 2 3 mph 1028.8mb 22f
7:30pm 2 3 mph 1028.8mb 22f
7:20pm 2 3 mph 1028.8mb 22f
7:10pm 2 5 mph 1028.8mb 22f
7:00pm 3 5 mph 1028.8mb 22f
6:50pm 3 5 mph 1028.8mb 22f
6:40pm 2 5 mph 1028.8mb 22f
6:30pm 2 5 mph 1028.8mb 22f
6:20pm 3
mph
1028.8mb 22f
6:10pm 2 3 mph 1028.4mb 22f
5:00pm 1 2 mph 1028.4mb 21f
4:50pm  -  2 mph 1028.4mb 22f
4:40pm  -  2 mph 1028.4mb 23f
4:30pm  -  2 mph 1028.8mb 22f
4:20pm  -  2 mph 1028.8mb 22f
4:10pm 2 3 mph 1028.8mb 20f
4:00pm 2 3 mph 1028.8mb 21f
3:50pm  -  3 mph 1028.8mb 20f
3:40pm 1 5 mph 1028.8mb 19f
3:30pm 2 3 mph 1028.8mb 20f
3:20pm 2 6 mph 1028.8mb 19f
3:10pm 2 3 mph 1028.8mb 20f
3:00pm 3 7 mph 1029.1mb 18f
2:50pm 6 8 mph 1029.1mb 17f
2:40pm 7 8 mph 1029.1mb 18f
2:30pm 3 7 mph 1029.5mb 17f
2:20pm 6 7 mph 1029.5mb 17f
2:10pm 5 9 mph 1029.5mb 17f
2:00pm 5 9 mph 1029.8mb 17f
1:50pm 5 9 mph 1029.8mb 17f
1:40pm 6 9 mph 1029.8mb 17f
1:30pm 5 8 mph 1029.8mb 17f
1:20pm 5 8 mph 1030.1mb 17f
1:10pm 6 7 mph 1030.1mb 17f
1:00pm 7 10 mph 1030.5mb 16f
12:50pm 3 10 mph 1030.5mb 16f
12:40pm 8 11 mph 1030.5mb 16f
12:30pm 3 10 mph 1030.8mb 16f
12:20pm 9 14 mph 1030.8mb 16f
12:10pm 6 11 mph 1030.8mb 15f